Change the Weather History Date:

Sunday, October 7, 2012

  Actual Average Record
Temperature  
Mean Temperature 45 °F -  
Max Temperature 48 °F 66 °F 89 °F (2007)
Min Temperature 39 °F 43 °F 30 °F (2001)
Degree Days  
Heating Degree Days 20    
Moisture  
Dew Point 36 °F    
Average Humidity 72    
Maximum Humidity 81    
Minimum Humidity 61    
Precipitation  
Precipitation 0.00 in - - ()
Sea Level Pressure  
Sea Level Pressure 30.15 in    
Wind  
Wind Speed 5 mph (WNW)    
Max Wind Speed 13 mph    
Max Gust Speed -    
Visibility 10 miles    
Events Rain    
Averages and records for this station are not official NWS values.
T = Trace of Precipitation, MM = Missing Value Source: NWS Daily Summary

Daily Weather History Graph

Daily Weather History Graph

Search for Another Location

Airport or City:

Trip Planner

Search our weather history database for the weather conditions in past years. The results will help you decide how hot, cold, wet, or windy it might be!

Date:

Astronomy

Oct. 07, 2012 Rise Set
Actual Time 7:35 AM EDT 7:04 PM EDT
Civil Twilight 7:07 AM EDT 7:31 PM EDT
Nautical Twilight 6:36 AM EDT 8:02 PM EDT
Astronomical Twilight 6:05 AM EDT 8:34 PM EDT
Moon No Moon Rise 2:11 PM EDT (10/7)
Length of Visible Light 12h 23m
Length of Day
11h 29m
Waning Gibbous, 56% of the Moon is Illuminated
Oct 7
Waning Gibbous
Oct 8
Last Quarter
Oct 15
New
Oct 21
First Quarter
Oct 29
Full

Hourly Weather History & Observations

Time (EDT) Temp. Windchill Dew Point Humidity Pressure Visibility Wind Dir Wind Speed Gust Speed Precip Events Conditions
12:53 AM 45.0 °F 41.8 °F 35.1 °F 68% 30.13 in 10.0 mi NNW 5.8 mph - N/A   Mostly Cloudy
1:53 AM 44.1 °F 40.1 °F 35.1 °F 71% 30.13 in 10.0 mi NW 6.9 mph - N/A   Overcast
2:53 AM 44.1 °F 42.5 °F 36.0 °F 73% 30.12 in 10.0 mi North 3.5 mph - N/A   Overcast
3:53 AM 44.1 °F 41.5 °F 36.0 °F 73% 30.12 in 10.0 mi NNW 4.6 mph - N/A   Overcast
4:53 AM 43.0 °F - 37.0 °F 80% 30.11 in 10.0 mi Calm Calm - N/A   Overcast
5:53 AM 43.0 °F 41.3 °F 36.0 °F 76% 30.11 in 10.0 mi NW 3.5 mph - N/A   Overcast
6:53 AM 43.0 °F 41.3 °F 37.0 °F 80% 30.12 in 10.0 mi NNW 3.5 mph - N/A   Overcast
7:53 AM 43.0 °F 40.3 °F 36.0 °F 76% 30.12 in 10.0 mi NW 4.6 mph - N/A   Overcast
8:53 AM 43.0 °F - 37.0 °F 80% 30.13 in 10.0 mi Calm Calm - N/A   Overcast
9:53 AM 44.1 °F 41.5 °F 37.0 °F 76% 30.14 in 10.0 mi West 4.6 mph - N/A   Overcast
10:53 AM 45.0 °F 42.6 °F 37.0 °F 74% 30.15 in 10.0 mi WNW 4.6 mph - N/A   Overcast
11:53 AM 46.9 °F - 36.0 °F 66% 30.16 in 10.0 mi WNW 8.1 mph - N/A   Mostly Cloudy
12:53 PM 48.0 °F - 36.0 °F 63% 30.15 in 10.0 mi West 6.9 mph - N/A   Overcast
1:53 PM 46.0 °F 40.2 °F 37.9 °F 73% 30.16 in 10.0 mi West 12.7 mph - 0.00 in Rain Light Rain
2:02 PM 46.4 °F 41.5 °F 37.4 °F 71% 30.14 in 9.0 mi West 10.4 mph - 0.00 in Rain Light Rain
2:12 PM 46.4 °F 41.9 °F 39.2 °F 76% 30.14 in 10.0 mi West 9.2 mph - 0.00 in Rain Light Rain
2:53 PM 46.0 °F 41.0 °F 37.9 °F 73% 30.16 in 10.0 mi WNW 10.4 mph - 0.00 in   Overcast
3:02 PM 44.6 °F 39.2 °F 39.2 °F 81% 30.14 in 9.0 mi West 10.4 mph - 0.00 in Rain Light Rain
3:15 PM 46.4 °F 42.9 °F 37.4 °F 71% 30.14 in 10.0 mi West 6.9 mph - 0.00 in Rain Light Rain
3:53 PM 46.9 °F - 37.0 °F 68% 30.14 in 10.0 mi NW 5.8 mph - 0.00 in   Mostly Cloudy
4:53 PM 48.0 °F - 36.0 °F 63% 30.14 in 10.0 mi WNW 5.8 mph - N/A   Overcast
5:53 PM 48.0 °F - 35.1 °F 61% 30.15 in 10.0 mi West 4.6 mph - N/A   Overcast
6:53 PM 46.9 °F - 35.1 °F 63% 30.16 in 10.0 mi West 4.6 mph - N/A   Overcast
8:53 PM 45.0 °F 43.5 °F 36.0 °F 71% 30.19 in 10.0 mi WSW 3.5 mph - N/A   Overcast
9:53 PM 45.0 °F 41.8 °F 35.1 °F 68% 30.19 in 10.0 mi West 5.8 mph - N/A   Overcast
10:53 PM 42.1 °F 38.4 °F 34.0 °F 73% 30.19 in 10.0 mi WNW 5.8 mph - N/A   Mostly Cloudy
11:53 PM 39.9 °F - 34.0 °F 79% 30.19 in 10.0 mi Calm Calm - N/A   Mostly Cloudy